User: anonymous   Login
Location: Unspecified
(0.0000°N, 0.0000°E)
Time: 21:51:19
(UTC+00:00)
Language:

PROTOMETHEE-1 - Orbit

View from above orbital plane
View from above orbital plane
View from above satellite
View from above satellite

Ground track
Ground track

The orbit is defined by the following mean orbital elements,

1 58321U          26145.59646058 +.00000000 +00000-0 +10120-3 0 00000
2 58321  97.3773 224.1351 0005680 244.1664 115.8992 15.30973764    01
Epoch (UTC): 25 May 2026 14:18:54
Eccentricity: 0.0005680
inclination: 97.3773°
perigee height: 469 km
apogee height: 477 km
right ascension of ascending node: 224.1351°
argument of perigee: 244.1664°
revolutions per day: 15.30973764
mean anomaly at epoch: 115.8992°

The dashed part of the orbit path shows where the satellite is in the earth's shadow,  

DLR